Location: Antioch Baptist Church
(32.6696°N, 85.7327°W)
Time: 12:24:27
(UTC+00:00)

H-2A R/B - Pass Details

Date: 14 July 2020
Orbit: 577 x 656 km, 98.5° (Epoch: 09 August)

Event Time Altitude Azimuth Distance (km) Brightness Sun altitude
Rises 08:28:41 0° 137° (SE) 2,938 5.5 -23.7°
Reaches altitude 10° 08:31:14 10° 124° (ESE) 2,021 4.8 -23.3°
Maximum altitude 08:34:45 24° 70° (ENE) 1,312 4.3 -22.8°
Drops below altitude 10° 08:38:13 10° 17° (NNE) 1,993 5.6 -22.3°
Sets 08:40:42 0° 4° (N) 2,888 6.3 -22.0°
